sat.trackr.live / text

‹ back to catalog

GLOBALSTAR M081

NORAD 37743 · 2011-033E

PAYLOAD ACTIVE UNKNOWN

§ Identity

Operator
Country
GLOB
Launch date
2011-07-13
Launch site
TYMSC
Launch vehicle
Mass (kg)
RCS (m²)
4.86

Purposes: comms

External: N2YO · Heavens-Above · Gunter

§ Orbital elements

Epoch: 2026-05-25T02:49:57.385920Z

Period
114.08 min
Inclination
51.9962°
Eccentricity
0.0000554
Mean motion
12.62264447 rev/d
Perigee alt
1,413.2 km
Apogee alt
1,414.0 km
Semi-major
7,791.7 km
B*
2.8251e-5
RAAN
265.8813°
Arg perigee
118.8475°
Mean anomaly
52.3110°
Rev number
68,702

§ Raw data

GLOBALSTAR M0811 37743U 11033E   26145.11802530 -.00000099  00000+0  28251-4 0  99902 37743  51.9962 265.8813 0000554 118.8475  52.3110 12.62264447687022

JSON: /api/v1/satellites/37743 · /tle

For live sub-satellite position, see the globe view (requires WebGL).

§ Visibility from observer

Set your observer location to see the next 7 days of passes ≥ 10°. The values pass through the URL so the page stays shareable.

No JS? Fill the form by hand. The geolocation button needs JavaScript.